When you browse on this site, cookies collect data to enhance your experience and personalize the content and advertising you see.
Visit our Privacy Policy to learn more. By continuing to use the site, you agree to this use of cookies and data.
  • In United Kingdom
  • List of Countries
  • For 7 days
  • Water Temperature
  • Satellite Maps
  • Weather Map
  • Weather Widgets
  • user-avatar
    Login

    Hourly Weather Ganne Tiqwa

    Today, 20 May, Monday

    Time Temperature Precipitation Wind Pressure Humidity
    00:00 +22°C° 0 mm 1 mps 754 mmHg 80%
    01:00 +21°C° 0 mm 1 mps 754 mmHg 81%
    02:00 +21°C° 0 mm 1 mps 753 mmHg 83%
    03:00 +21°C° 0 mm 1 mps 754 mmHg 83%
    04:00 +21°C° 0 mm 1 mps 754 mmHg 83%
    05:00 +19°C° 0 mm 0 mps 754 mmHg 83%
    06:00 +22°C° 0 mm 1 mps 754 mmHg 75%
    07:00 +23°C° 0 mm 1 mps 755 mmHg 67%
    08:00 +25°C° 0 mm 2 mps 755 mmHg 60%
    09:00 +26°C° 0 mm 2 mps 755 mmHg 54%
    10:00 +28°C° 0 mm 3 mps 755 mmHg 49%
    11:00 +29°C° 0 mm 3 mps 755 mmHg 44%
    12:00 +29°C° 0 mm 4 mps 755 mmHg 43%
    13:00 +30°C° 0 mm 5 mps 754 mmHg 43%
    14:00 +30°C° 0 mm 6 mps 754 mmHg 42%
    15:00 +29°C° 0 mm 6 mps 754 mmHg 44%
    16:00 +29°C° 0 mm 6 mps 754 mmHg 47%
    17:00 +28°C° 0 mm 6 mps 754 mmHg 49%
    18:00 +27°C° 0 mm 5 mps 754 mmHg 54%
    19:00 +26°C° 0 mm 4 mps 754 mmHg 59%
    20:00 +25°C° 0 mm 3 mps 754 mmHg 64%
    21:00 +24°C° 0 mm 2 mps 754 mmHg 66%
    22:00 +24°C° 0 mm 2 mps 755 mmHg 68%
    23:00 +24°C° 0 mm 2 mps 755 mmHg 70%

    Tomorrow, 21 May, Tuesday

    Time Temperature Precipitation Wind Pressure Humidity
    00:00 +23°C° 0 mm 1 mps 755 mmHg 71%
    01:00 +23°C° 0 mm 1 mps 754 mmHg 71%
    02:00 +21°C° 0 mm 0 mps 754 mmHg 71%
    03:00 +21°C° 0 mm 0 mps 754 mmHg 68%
    04:00 +23°C° 0 mm 1 mps 754 mmHg 65%
    05:00 +23°C° 0 mm 1 mps 754 mmHg 62%
    06:00 +25°C° 0 mm 1 mps 755 mmHg 55%
    07:00 +27°C° 0 mm 1 mps 755 mmHg 47%
    08:00 +29°C° 0 mm 2 mps 755 mmHg 40%
    09:00 +30°C° 0 mm 2 mps 755 mmHg 38%
    10:00 +31°C° 0 mm 2 mps 755 mmHg 35%
    11:00 +34°C° 0 mm 3 mps 755 mmHg 33%
    12:00 +34°C° 0 mm 4 mps 755 mmHg 31%
    13:00 +35°C° 0 mm 4 mps 755 mmHg 30%
    14:00 +35°C° 0 mm 5 mps 755 mmHg 28%
    15:00 +34°C° 0 mm 5 mps 754 mmHg 30%
    16:00 +33°C° 0 mm 5 mps 754 mmHg 32%
    17:00 +32°C° 0 mm 5 mps 754 mmHg 34%
    18:00 +29°C° 0 mm 4 mps 755 mmHg 37%
    19:00 +28°C° 0 mm 4 mps 755 mmHg 41%
    20:00 +27°C° 0 mm 3 mps 755 mmHg 44%
    21:00 +27°C° 0 mm 2 mps 755 mmHg 43%
    22:00 +27°C° 0 mm 2 mps 755 mmHg 43%
    23:00 +26°C° 0 mm 1 mps 755 mmHg 42%

    Day after tomorrow, 22 May, Wednesday

    Time Temperature Precipitation Wind Pressure Humidity
    00:00 +26°C° 0 mm 1 mps 755 mmHg 42%
    01:00 +26°C° 0 mm 1 mps 755 mmHg 43%
    02:00 +25°C° 0 mm 1 mps 755 mmHg 43%
    03:00 +23°C° 0 mm 0 mps 755 mmHg 43%
    04:00 +23°C° 0 mm 0 mps 755 mmHg 43%
    05:00 +23°C° 0 mm 0 mps 755 mmHg 43%
    06:00 +25°C° 0 mm 0 mps 755 mmHg 38%
    07:00 +28°C° 0 mm 0 mps 755 mmHg 32%
    08:00 +30°C° 0 mm 0 mps 755 mmHg 27%
    09:00 +34°C° 0 mm 2 mps 755 mmHg 26%
    10:00 +35°C° 0 mm 3 mps 755 mmHg 25%
    11:00 +36°C° 0 mm 4 mps 755 mmHg 25%
    12:00 +36°C° 0 mm 4 mps 755 mmHg 25%
    13:00 +36°C° 0 mm 4 mps 755 mmHg 26%
    14:00 +36°C° 0 mm 4 mps 755 mmHg 27%
    15:00 +35°C° 0 mm 4 mps 754 mmHg 28%
    16:00 +35°C° 0 mm 5 mps 754 mmHg 29%
    17:00 +34°C° 0 mm 5 mps 754 mmHg 31%
    18:00 +33°C° 0 mm 4 mps 754 mmHg 32%
    19:00 +31°C° 0 mm 3 mps 755 mmHg 34%
    20:00 +30°C° 0 mm 2 mps 755 mmHg 36%
    21:00 +29°C° 0 mm 2 mps 755 mmHg 36%
    22:00 +29°C° 0 mm 1 mps 755 mmHg 36%
    23:00 +29°C° 0 mm 1 mps 755 mmHg 36%

    23 May, Thursday

    Time Temperature Precipitation Wind Pressure Humidity
    00:00 +28°C° 0 mm 1 mps 755 mmHg 35%
    01:00 +28°C° 0 mm 1 mps 754 mmHg 35%
    02:00 +28°C° 0 mm 1 mps 754 mmHg 35%
    03:00 +28°C° 0 mm 1 mps 754 mmHg 34%
    04:00 +27°C° 0 mm 1 mps 754 mmHg 33%
    05:00 +27°C° 0 mm 1 mps 754 mmHg 33%
    06:00 +30°C° 0 mm 1 mps 754 mmHg 29%
    07:00 +32°C° 0 mm 1 mps 754 mmHg 25%
    08:00 +34°C° 0 mm 1 mps 754 mmHg 22%
    09:00 +35°C° 0 mm 1 mps 754 mmHg 21%
    10:00 +37°C° 0 mm 2 mps 754 mmHg 19%
    11:00 +39°C° 0 mm 2 mps 754 mmHg 18%
    12:00 +39°C° 0 mm 3 mps 753 mmHg 18%
    13:00 +41°C° 0 mm 4 mps 753 mmHg 18%
    14:00 +41°C° 0 mm 5 mps 752 mmHg 17%
    15:00 +40°C° 0 mm 5 mps 752 mmHg 20%
    16:00 +39°C° 0 mm 5 mps 752 mmHg 23%
    17:00 +37°C° 0 mm 5 mps 752 mmHg 25%
    18:00 +36°C° 0 mm 4 mps 752 mmHg 27%
    19:00 +35°C° 0 mm 3 mps 752 mmHg 28%
    20:00 +32°C° 0 mm 2 mps 752 mmHg 30%
    21:00 +32°C° 0 mm 2 mps 752 mmHg 28%
    22:00 +32°C° 0 mm 2 mps 752 mmHg 26%
    23:00 +32°C° 0 mm 2 mps 752 mmHg 25%

    24 May, Friday

    Time Temperature Precipitation Wind Pressure Humidity
    00:00 +34°C° 0 mm 2 mps 751 mmHg 23%
    01:00 +34°C° 0 mm 3 mps 751 mmHg 21%
    02:00 +34°C° 0 mm 3 mps 751 mmHg 20%
    03:00 +34°C° 0 mm 4 mps 750 mmHg 19%
    04:00 +34°C° 0 mm 5 mps 750 mmHg 18%
    05:00 +34°C° 0 mm 5 mps 750 mmHg 17%
    06:00 +36°C° 0 mm 5 mps 750 mmHg 16%
    07:00 +39°C° 0 mm 5 mps 750 mmHg 15%
    08:00 +41°C° 0 mm 5 mps 751 mmHg 14%
    09:00 +42°C° 0 mm 5 mps 750 mmHg 13%
    10:00 +43°C° 0 mm 5 mps 750 mmHg 12%
    11:00 +46°C° 0 mm 5 mps 750 mmHg 11%
    12:00 +45°C° 0 mm 4 mps 750 mmHg 11%
    13:00 +45°C° 0 mm 3 mps 749 mmHg 11%
    14:00 +45°C° 0 mm 3 mps 749 mmHg 11%
    15:00 +45°C° 0 mm 2 mps 749 mmHg 12%
    16:00 +43°C° 0 mm 2 mps 748 mmHg 13%
    17:00 +43°C° 0 mm 1 mps 748 mmHg 13%
    18:00 +41°C° 0 mm 2 mps 748 mmHg 13%
    19:00 +40°C° 0 mm 3 mps 749 mmHg 12%
    20:00 +40°C° 0 mm 4 mps 749 mmHg 12%
    21:00 +38°C° 0 mm 4 mps 749 mmHg 13%
    22:00 +38°C° 0 mm 3 mps 749 mmHg 14%
    23:00 +37°C° 0 mm 2 mps 749 mmHg 15%

    25 May, Saturday

    Time Temperature Precipitation Wind Pressure Humidity
    00:00 +36°C° 0 mm 2 mps 749 mmHg 16%
    01:00 +36°C° 0 mm 3 mps 749 mmHg 16%
    02:00 +35°C° 0 mm 3 mps 749 mmHg 17%
    03:00 +33°C° 0 mm 3 mps 749 mmHg 30%
    04:00 +30°C° 0 mm 3 mps 750 mmHg 43%
    05:00 +27°C° 0 mm 3 mps 750 mmHg 56%
    06:00 +28°C° 0 mm 3 mps 751 mmHg 55%
    07:00 +29°C° 0 mm 3 mps 751 mmHg 55%
    08:00 +29°C° 0 mm 4 mps 752 mmHg 54%
    09:00 +30°C° 0 mm 4 mps 752 mmHg 53%
    10:00 +32°C° 0 mm 4 mps 752 mmHg 52%
    11:00 +32°C° 0 mm 4 mps 752 mmHg 51%
    12:00 +32°C° 0 mm 4 mps 751 mmHg 53%
    13:00 +32°C° 0 mm 4 mps 751 mmHg 54%
    14:00 +30°C° 0 mm 4 mps 751 mmHg 55%
    15:00 +30°C° 0 mm 4 mps 751 mmHg 56%
    16:00 +29°C° 0 mm 4 mps 751 mmHg 56%
    17:00 +29°C° 0 mm 4 mps 751 mmHg 57%
    18:00 +28°C° 0 mm 4 mps 751 mmHg 60%
    19:00 +27°C° 0 mm 3 mps 751 mmHg 63%
    20:00 +26°C° 0 mm 3 mps 752 mmHg 66%
    21:00 +26°C° 0 mm 2 mps 752 mmHg 66%
    22:00 +26°C° 0 mm 2 mps 752 mmHg 66%
    23:00 +26°C° 0 mm 2 mps 752 mmHg 66%
    Show more